Location: Beneden-Haastrecht
(52.0012°N, 4.7557°E)
Time: 10:32:33
(UTC+00:00)

SJ 16-02 - Pass Details

Date: 24 October 2020
Orbit: 605 x 617 km, 75.0° (Epoch: 25 November)

Event Time Altitude Azimuth Distance (km) Brightness Sun altitude
Rises 18:53:13 0° 345° (NNW) 2,895 5.1 -23.0°
Reaches altitude 10° 18:56:29 10° 10° (N) 1,988 3.9 -23.5°
Enters shadow 18:56:57 11° 16° (NNE) 1,898 3.8 -23.6°
